WA3NOA-2 Weather Reports


Display with metric or nautical units.
time (UTC)temp
F
wind
direction
speed
MPH
gust
MPH
rain 1hr
in
rain 24hr
in
rain mn
in
humidity
%
barometer
mb
20260505041206 61 261 3.0 4.0 0.00 0.00 0.00 57 1004.0
20260505040707 61 246 5.0 8.0 0.00 0.00 0.00 57 1003.8
20260505040308 61 267 2.0 7.0 0.00 0.00 0.00 57 1003.8
20260505040207 61 234 2.0 7.0 0.00 0.00 0.00 57 1003.9
20260505035706 61 264 4.0 8.0 0.00 0.00 0.00 57 1003.8
20260505035206 61 231 1.0 9.0 0.00 0.00 0.00 56 1003.8
20260505034808 61 261 1.0 6.0 0.00 0.00 0.00 56 1003.8
20260505034706 61 270 1.0 6.0 0.00 0.00 0.00 56 1003.8
20260505034206 62 0 0.0 8.0 0.00 0.00 0.00 55 1003.8
20260505033706 62 257 1.0 7.0 0.00 0.00 0.00 55 1003.9
20260505033308 62 0 0.0 4.0 0.00 0.00 0.00 55 1003.9
20260505033206 62 257 1.0 4.0 0.00 0.00 0.00 54 1003.9
20260505032706 62 269 3.0 6.0 0.00 0.00 0.00 54 1003.9
20260505032206 62 0 0.0 3.0 0.00 0.00 0.00 54 1004.0
20260505031808 62 274 1.0 7.0 0.00 0.00 0.00 54 1004.0
20260505031706 62 274 1.0 7.0 0.00 0.00 0.00 54 1004.0
20260505031206 62 199 4.0 7.0 0.00 0.00 0.00 53 1004.0
20260505030706 62 262 2.0 9.0 0.00 0.00 0.00 53 1003.9
20260505030308 62 222 4.0 9.0 0.00 0.00 0.00 53 1004.0
20260505030206 62 257 9.0 9.0 0.00 0.00 0.00 53 1004.0
20260505025706 62 249 1.0 5.0 0.00 0.00 0.00 53 1003.9
20260505025206 62 263 3.0 7.0 0.00 0.00 0.00 53 1003.9
20260505024808 62 269 2.0 7.0 0.00 0.00 0.00 52 1003.9
20260505024706 62 263 2.0 5.0 0.00 0.00 0.00 52 1004.0
20260505024206 62 306 2.0 3.0 0.00 0.00 0.00 53 1003.9
20260505023706 62 0 0.0 7.0 0.00 0.00 0.00 52 1003.8
20260505023308 62 0 0.0 3.0 0.00 0.00 0.00 52 1003.9
20260505023206 62 0 0.0 3.0 0.00 0.00 0.00 52 1003.9
20260505022706 63 256 4.0 8.0 0.00 0.00 0.00 51 1004.0
20260505022206 63 250 3.0 7.0 0.00 0.00 0.00 51 1004.1
20260505021808 63 240 1.0 5.0 0.00 0.00 0.00 51 1004.2
20260505021706 63 0 0.0 5.0 0.00 0.00 0.00 51 1004.2
20260505021206 63 270 2.0 6.0 0.00 0.00 0.00 51 1004.2
20260505020706 63 274 3.0 6.0 0.00 0.00 0.00 50 1004.2
20260505020308 63 0 0.0 6.0 0.00 0.00 0.00 50 1004.1
20260505020206 63 264 6.0 6.0 0.00 0.00 0.00 50 1004.2
20260505015706 63 247 3.0 4.0 0.00 0.00 0.00 50 1004.2
20260505015206 63 259 1.0 3.0 0.00 0.00 0.00 50 1004.1
20260505014808 63 260 3.0 4.0 0.00 0.00 0.00 50 1004.3
20260505014706 63 0 0.0 3.0 0.00 0.00 0.00 49 1004.2
20260505014206 63 0 0.0 4.0 0.00 0.00 0.00 49 1004.2
20260505013706 63 255 1.0 3.0 0.00 0.00 0.00 49 1004.0
20260505013308 63 245 2.0 5.0 0.00 0.00 0.00 49 1004.0
20260505013206 63 254 2.0 5.0 0.00 0.00 0.00 49 1004.0
20260505012706 64 0 0.0 4.0 0.00 0.00 0.00 49 1004.0
20260505012206 64 252 4.0 4.0 0.00 0.00 0.00 49 1003.9
20260505011808 64 253 3.0 7.0 0.00 0.00 0.00 49 1003.9
20260505011706 64 0 0.0 7.0 0.00 0.00 0.00 49 1003.8
20260505011206 64 0 0.0 4.0 0.00 0.00 0.00 48 1003.9
20260505010706 64 0 0.0 4.0 0.00 0.00 0.00 48 1003.8
20260505010307 64 254 3.0 4.0 0.00 0.00 0.00 49 1003.8
20260505010206 64 273 1.0 2.0 0.00 0.00 0.00 48 1003.7
20260505005706 64 246 3.0 3.0 0.00 0.00 0.00 48 1003.8
20260505005206 64 246 1.0 3.0 0.00 0.00 0.00 48 1003.7
20260505004808 65 0 0.0 3.0 0.00 0.00 0.00 47 1003.6
20260505004706 65 0 0.0 3.0 0.00 0.00 0.00 47 1003.6
20260505004206 65 0 0.0 1.0 0.00 0.00 0.00 48 1003.5
20260505003706 65 0 0.0 2.0 0.00 0.00 0.00 47 1003.5
20260505003308 65 246 1.0 2.0 0.00 0.00 0.00 47 1003.4
20260505003206 65 246 1.0 2.0 0.00 0.00 0.00 47 1003.4
20260505002706 66 0 0.0 4.0 0.00 0.00 0.00 46 1003.4
20260505002206 66 0 0.0 5.0 0.00 0.00 0.00 46 1003.3
20260505001808 66 251 1.0 3.0 0.00 0.00 0.00 46 1003.5
20260505001706 66 0 0.0 3.0 0.00 0.00 0.00 46 1003.4
20260505001206 66 251 3.0 3.0 0.00 0.00 0.00 46 1003.3
20260505000706 66 0 0.0 4.0 0.00 0.00 0.00 45 1003.2
20260505000307 66 273 2.0 4.0 0.00 0.00 0.00 45 1003.3
20260505000206 66 273 1.0 4.0 0.00 0.00 0.00 45 1003.3
20260504235706 67 256 2.0 3.0 0.00 0.00 0.00 45 1003.3
20260504235206 67 260 3.0 3.0 0.00 0.00 0.00 44 1003.3
20260504234808 67 246 1.0 4.0 0.00 0.00 0.00 44 1003.3
20260504234706 67 0 0.0 4.0 0.00 0.00 0.00 44 1003.2
20260504234206 67 0 0.0 5.0 0.00 0.00 0.00 44 1003.3
20260504233706 68 266 3.0 7.0 0.00 0.00 0.00 44 1003.2
20260504233307 68 269 4.0 6.0 0.00 0.00 0.00 43 1003.2
20260504233206 68 248 3.0 6.0 0.00 0.00 0.00 43 1003.2
20260504232706 68 265 4.0 4.0 0.00 0.00 0.00 43 1003.3
20260504232206 68 243 1.0 8.0 0.00 0.00 0.00 43 1003.3
20260504231807 68 235 7.0 9.0 0.00 0.00 0.00 43 1003.2
20260504231706 68 118 1.0 9.0 0.00 0.00 0.00 43 1003.2
20260504231206 68 263 3.0 12.0 0.00 0.00 0.00 42 1003.3
20260504230706 68 259 3.0 7.0 0.00 0.00 0.00 42 1003.2
20260504230308 68 267 3.0 11.0 0.00 0.00 0.00 42 1003.1
20260504230206 68 13 2.0 6.0 0.00 0.00 0.00 42 1003.2
20260504225706 69 286 1.0 5.0 0.00 0.00 0.00 42 1003.2
20260504225206 69 272 1.0 8.0 0.00 0.00 0.00 42 1003.2
20260504224807 69 236 7.0 9.0 0.00 0.00 0.00 42 1003.2
20260504224706 69 245 1.0 6.0 0.00 0.00 0.00 42 1003.3
20260504224206 69 260 3.0 11.0 0.00 0.00 0.00 41 1003.3
20260504223706 69 252 4.0 4.0 0.00 0.00 0.00 41 1003.2
20260504223308 69 274 4.0 9.0 0.00 0.00 0.00 40 1003.2
20260504223206 69 274 4.0 9.0 0.00 0.00 0.00 40 1003.3
20260504222706 69 300 3.0 9.0 0.00 0.00 0.00 40 1003.2
20260504222206 69 274 1.0 12.0 0.00 0.00 0.00 40 1003.3
20260504221807 69 263 7.0 13.0 0.00 0.00 0.00 39 1003.3
20260504221706 69 265 2.0 13.0 0.00 0.00 0.00 40 1003.4
20260504221206 69 256 5.0 10.0 0.00 0.00 0.00 40 1003.3
20260504220706 69 259 6.0 8.0 0.00 0.00 0.00 41 1003.4
20260504220307 69 269 4.0 7.0 0.00 0.00 0.00 40 1003.3
20260504220206 69 0 0.0 7.0 0.00 0.00 0.00 40 1003.3
20260504215706 69 257 4.0 9.0 0.00 0.00 0.00 39 1003.3
20260504215206 70 122 1.0 9.0 0.00 0.00 0.00 39 1003.4
20260504214807 70 261 1.0 9.0 0.00 0.00 0.00 40 1003.5
20260504214706 70 216 4.0 9.0 0.00 0.00 0.00 40 1003.4
20260504214206 70 30 1.0 8.0 0.00 0.00 0.00 39 1003.5
20260504213706 70 270 1.0 14.0 0.00 0.00 0.00 39 1003.4
20260504213307 70 355 2.0 11.0 0.00 0.00 0.00 40 1003.5
20260504213206 70 267 1.0 11.0 0.00 0.00 0.00 40 1003.5
20260504212706 70 278 10.0 10.0 0.00 0.00 0.00 39 1003.4
20260504212206 70 215 5.0 6.0 0.00 0.00 0.00 40 1003.5
20260504211807 70 0 0.0 9.0 0.00 0.00 0.00 39 1003.4
20260504211706 70 242 5.0 9.0 0.00 0.00 0.00 39 1003.5
20260504211206 70 232 4.0 9.0 0.00 0.00 0.00 40 1003.4
20260504210706 70 269 2.0 8.0 0.00 0.00 0.00 41 1003.5
20260504210307 70 0 0.0 11.0 0.00 0.00 0.00 40 1003.4
20260504210206 70 207 3.0 11.0 0.00 0.00 0.00 40 1003.4
20260504205706 70 254 8.0 12.0 0.00 0.00 0.00 41 1003.4
20260504205206 70 103 1.0 9.0 0.00 0.00 0.00 42 1003.5
20260504204808 70 265 2.0 8.0 0.00 0.00 0.00 40 1003.5
20260504204706 70 266 1.0 8.0 0.00 0.00 0.00 39 1003.5
20260504204206 70 269 6.0 8.0 0.00 0.00 0.00 40 1003.6
20260504203706 70 0 0.0 11.0 0.00 0.00 0.00 40 1003.6
20260504203309 70 252 7.0 12.0 0.00 0.00 0.00 39 1003.7
20260504203206 70 253 5.0 12.0 0.00 0.00 0.00 40 1003.6
20260504202706 70 271 6.0 9.0 0.00 0.00 0.00 41 1003.8
20260504202206 70 257 7.0 9.0 0.00 0.00 0.00 41 1003.7
20260504201807 70 284 3.0 11.0 0.00 0.00 0.00 41 1003.7
20260504201706 71 163 2.0 7.0 0.00 0.00 0.00 42 1003.8
20260504201206 70 243 5.0 11.0 0.00 0.00 0.00 40 1003.9
20260504200706 71 262 4.0 11.0 0.00 0.00 0.00 39 1004.0
20260504200307 71 260 2.0 15.0 0.00 0.00 0.00 41 1004.1
20260504200206 71 248 5.0 15.0 0.00 0.00 0.00 40 1004.0
20260504195706 71 239 3.0 11.0 0.00 0.00 0.00 39 1004.1
20260504195206 71 0 0.0 13.0 0.00 0.00 0.00 40 1004.0
20260504194807 71 255 7.0 10.0 0.00 0.00 0.00 38 1004.1
20260504194706 71 0 0.0 8.0 0.00 0.00 0.00 39 1004.1
20260504194206 72 248 11.0 12.0 0.00 0.00 0.00 39 1004.3
20260504193706 71 225 5.0 12.0 0.00 0.00 0.00 38 1004.2
20260504193308 71 242 5.0 12.0 0.00 0.00 0.00 39 1004.2
20260504193206 71 228 5.0 12.0 0.00 0.00 0.00 39 1004.2
20260504192706 71 267 12.0 15.0 0.00 0.00 0.00 39 1004.3
20260504192206 71 269 1.0 11.0 0.00 0.00 0.00 39 1004.3
20260504191807 71 268 4.0 12.0 0.00 0.00 0.00 41 1004.5
20260504191706 71 255 5.0 12.0 0.00 0.00 0.00 39 1004.5
20260504191206 71 247 1.0 5.0 0.00 0.00 0.00 40 1004.5
20260504190706 71 284 8.0 9.0 0.00 0.00 0.00 39 1004.5
20260504190307 71 338 3.0 14.0 0.00 0.00 0.00 39 1004.6
20260504190206 72 277 4.0 14.0 0.00 0.00 0.00 38 1004.6
20260504185706 71 275 4.0 10.0 0.00 0.00 0.00 41 1004.7
20260504185206 71 269 9.0 10.0 0.00 0.00 0.00 40 1004.7
20260504184807 71 241 1.0 10.0 0.00 0.00 0.00 37 1004.9
20260504184706 72 246 10.0 10.0 0.00 0.00 0.00 37 1004.9
20260504184206 72 268 4.0 8.0 0.00 0.00 0.00 40 1005.0
20260504183707 71 263 2.0 8.0 0.00 0.00 0.00 39 1005.0
20260504183309 71 262 7.0 10.0 0.00 0.00 0.00 38 1005.0
20260504183207 71 265 6.0 10.0 0.00 0.00 0.00 41 1004.9
20260504182707 71 275 8.0 11.0 0.00 0.00 0.00 39 1005.1
20260504182207 71 302 5.0 8.0 0.00 0.00 0.00 40 1005.0
20260504181809 71 250 1.0 7.0 0.00 0.00 0.00 40 1005.0
20260504181707 71 0 0.0 7.0 0.00 0.00 0.00 39 1005.0
20260504181207 71 265 1.0 8.0 0.00 0.00 0.00 43 1005.1
20260504180707 71 248 4.0 10.0 0.00 0.00 0.00 39 1005.3
20260504180308 71 271 3.0 11.0 0.00 0.00 0.00 40 1005.4
20260504180207 70 279 6.0 11.0 0.00 0.00 0.00 40 1005.4
20260504175707 71 246 3.0 8.0 0.00 0.00 0.00 38 1005.5
20260504175207 71 0 0.0 9.0 0.00 0.00 0.00 38 1005.5
20260504174808 71 243 9.0 9.0 0.00 0.00 0.00 38 1005.6
20260504174707 71 270 3.0 8.0 0.00 0.00 0.00 39 1005.5
20260504174207 70 267 3.0 10.0 0.00 0.00 0.00 41 1005.7
20260504173707 71 257 4.0 6.0 0.00 0.00 0.00 38 1005.8
20260504173308 71 282 3.0 11.0 0.00 0.00 0.00 38 1005.7
20260504173207 71 232 11.0 11.0 0.00 0.00 0.00 39 1005.8
20260504172707 71 0 0.0 8.0 0.00 0.00 0.00 38 1005.7
20260504172207 71 275 2.0 3.0 0.00 0.00 0.00 41 1005.9
20260504171808 70 237 2.0 10.0 0.00 0.00 0.00 39 1005.9
20260504171707 70 248 4.0 10.0 0.00 0.00 0.00 39 1005.8
20260504171207 70 263 7.0 10.0 0.00 0.00 0.00 37 1005.9
20260504170707 70 0 0.0 9.0 0.00 0.00 0.00 37 1005.9
20260504170308 70 265 4.0 7.0 0.00 0.00 0.00 43 1005.9
20260504170207 70 0 0.0 7.0 0.00 0.00 0.00 38 1006.0
20260504160308 69 0 0.0 3.0 0.00 0.00 0.00 40 1006.7
20260504160206 69 270 2.0 3.0 0.00 0.00 0.00 40 1006.7
20260504150706 66 325 2.0 7.0 0.00 0.00 0.00 48 1007.3
20260504150308 66 269 4.0 14.0 0.00 0.00 0.00 45 1007.2
20260504150206 66 241 4.0 8.0 0.00 0.00 0.00 48 1007.1
20260504141206 62 0 0.0 8.0 0.00 0.00 0.00 56 1007.4
20260504140706 62 133 3.0 7.0 0.00 0.00 0.00 55 1007.4
20260504140307 62 285 2.0 4.0 0.00 0.00 0.00 57 1007.4
20260504140206 62 0 0.0 2.0 0.00 0.00 0.00 59 1007.4
20260504130706 58 0 0.0 3.0 0.00 0.00 0.00 65 1008.0
20260504130308 57 252 1.0 3.0 0.00 0.00 0.00 68 1008.1
20260504130206 57 252 1.0 3.0 0.00 0.00 0.00 68 1007.9
20260504120308 51 224 6.0 7.0 0.00 0.00 0.00 72 1008.1
20260504120206 51 244 7.0 7.0 0.00 0.00 0.00 72 1008.1
20260504110706 44 0 0.0 1.0 0.00 0.00 0.00 77 1008.1
20260504110307 43 76 1.0 1.0 0.00 0.00 0.00 78 1008.3
20260504110206 43 0 0.0 1.0 0.00 0.00 0.00 77 1008.2
20260504100307 42 248 2.0 3.0 0.00 0.00 0.00 73 1008.4
20260504100206 42 241 2.0 3.0 0.00 0.00 0.00 74 1008.4
20260504081807 40 0 0.0 0.0 0.00 0.00 0.00 71 1008.3
20260504081706 40 0 0.0 0.0 0.00 0.00 0.00 71 1008.4
20260504081206 40 0 0.0 0.0 0.00 0.00 0.00 70 1008.3
20260504080706 40 0 0.0 0.0 0.00 0.00 0.00 70 1008.3
20260504080307 40 0 0.0 0.0 0.00 0.00 0.00 70 1008.2
20260504080206 40 0 0.0 0.0 0.00 0.00 0.00 70 1008.3
20260504070307 42 0 0.0 0.0 0.00 0.00 0.00 67 1008.3
20260504070206 42 0 0.0 0.0 0.00 0.00 0.00 67 1008.2
20260504060207 44 0 0.0 0.0 0.00 0.00 0.00 63 1008.2
20260504050707 44 0 0.0 1.0 0.00 0.00 0.00 65 1008.3
20260504050308 44 0 0.0 2.0 0.00 0.00 0.00 65 1008.2
20260504050207 44 0 0.0 2.0 0.00 0.00 0.00 65 1008.3
20260504045707 44 0 0.0 0.0 0.00 0.00 0.00 65 1008.2
20260504045207 44 0 0.0 0.0 0.00 0.00 0.00 65 1008.3
20260504044809 44 0 0.0 0.0 0.00 0.00 0.00 65 1008.3
20260504044707 44 0 0.0 0.0 0.00 0.00 0.00 65 1008.2
20260504044207 44 0 0.0 0.0 0.00 0.00 0.00 64 1008.2
20260504043707 44 0 0.0 0.0 0.00 0.00 0.00 64 1008.2
20260504043308 44 0 0.0 0.0 0.00 0.00 0.00 64 1008.1
20260504043207 44 0 0.0 0.0 0.00 0.00 0.00 64 1008.2
20260504042707 44 0 0.0 1.0 0.00 0.00 0.00 63 1008.2
20260504042207 44 0 0.0 1.0 0.00 0.00 0.00 64 1008.0
20260504041808 44 0 0.0 3.0 0.00 0.00 0.00 64 1007.9
20260504041707 44 236 2.0 3.0 0.00 0.00 0.00 65 1007.9